Starlink 32864

operational
NORAD ID: 62862 Int'l Des: 2025-022 Owner: SPXS Country: US Constellation: starlink
LEOCIRCULAR

About Starlink 32864

Description loading...

Live Position

Loading 3D Globe...

Upcoming Passes

Altitude History

Altitude vs Time

uPlot chart will show altitude changes over time

Two-Line Element Set

1 62862U 25022J 25259.31573168 .00034292 00000-0 11617-2 0 9990
2 62862 53.1564 219.4847 0000842 90.5040 269.6058 15.30279282 35202
Epoch: Sep 16, 2025 • Age: 18 hours

Current Status

Altitude 478.3 km
Velocity 7.63 km/s
Sub-Earth Point 41.61°N, 22.02°W
Launch Date Feb 2, 2025
Age 0.6 years
Type internet

Technical Details

Classification Payload
Mass 730.00 kg
Dry Mass 700.00 kg
Total Mass 730.00 kg
Length 0.30 m
Diameter 4.10 m
Span 29.00 m
Shape Box + pan
Manufacturer SPXS
Bus Type Starlink V2M
Phase Status In Orbit
Owner/State SPXS/US

Large Constellations

Loading constellations...